Tracking 29892 objects as of 21-Nov-2024
HD Live streaming from Space Station
objects crossing your sky now

STARLINK-3590

Track STARLINK-3590 now!
10-day predictions
STARLINK-3590 is classified as:


NORAD ID: 51867
Int'l Code: 2022-022R
Perigee: 545.8 km
Apogee: 548.0 km
Inclination: 53.2 °
Period: 95.4 minutes
Semi major axis: 6917 km
RCS: Unknown
Launch date: March 3, 2022
Source: United States (US)
Launch site: AIR FORCE EASTERN TEST RANGE (AFETR)
Your satellite tracking list
Your tracking list is empty




NASA's NSSDC Master Catalog

Two Line Element Set (TLE):
1 51867U 22022R   24325.48269281  .00000415  00000-0  44137-4 0  9994
2 51867  53.2178 337.9184 0001583 106.4411 253.6755 15.08844119151522
Source of the keplerian elements: AFSPC